FW1564 Weather Reports


Display with metric or nautical units.
time (UTC)temp
F
wind
direction
speed
MPH
gust
MPH
rain 1hr
in
rain 24hr
in
rain mn
in
humidity
%
barometer
mb
20260507192322 56 354 0.0 2.0 0.00 0.00 0.00 73 1011.2
20260507191806 56 257 0.0 3.0 0.00 0.00 0.00 73 1011.2
20260507190320 56 298 0.0 2.0 0.00 0.00 0.00 74 1011.3
20260507185745 56 67 1.0 4.0 0.00 0.00 0.00 73 1011.5
20260507184307 56 127 2.0 4.0 0.00 0.00 0.00 73 1011.5
20260507183255 56 126 1.0 7.0 0.00 0.00 0.00 72 1011.4
20260507182243 57 114 4.0 7.0 0.00 0.00 0.00 72 1011.4
20260507181243 57 165 2.0 6.0 0.00 0.00 0.00 72 1011.4
20260507180243 57 131 3.0 8.0 0.00 0.00 0.00 71 1011.3
20260507175242 57 120 3.0 7.0 0.00 0.00 0.00 71 1011.4
20260507174241 56 108 1.0 9.0 0.00 0.00 0.00 72 1011.3
20260507173242 56 243 2.0 6.0 0.00 0.00 0.00 73 1011.4
20260507172244 56 142 3.0 8.0 0.00 0.00 0.00 72 1011.4
20260507171242 57 152 4.0 7.0 0.00 0.00 0.00 72 1011.4
20260507170737 58 282 1.0 8.0 0.00 0.00 0.00 71 1011.2
20260507165242 59 168 3.0 8.0 0.00 0.00 0.00 70 1011.2
20260507165152 59 120 4.0 9.0 0.00 0.00 0.00 70 1011.2
20260507163242 60 73 8.0 10.0 0.00 0.00 0.00 67 1011.4
20260507162242 60 253 2.0 11.0 0.00 0.00 0.00 70 1011.5
20260507161242 59 140 5.0 13.0 0.00 0.00 0.00 71 1011.7
20260507160725 59 112 4.0 13.0 0.00 0.00 0.00 68 1011.6
20260507155243 59 125 2.0 8.0 0.00 0.00 0.00 67 1011.7
20260507154725 58 246 0.0 6.0 0.00 0.00 0.00 64 1011.6
20260507153244 58 182 1.0 7.0 0.00 0.00 0.00 63 1011.7
20260507152244 58 147 3.0 4.0 0.00 0.00 0.00 64 1011.6
20260507151243 58 168 2.0 7.0 0.00 0.00 0.00 63 1011.7
20260507150801 57 175 2.0 4.0 0.00 0.00 0.00 66 1011.7
20260507145242 57 132 1.0 7.0 0.00 0.00 0.00 68 1012.3
20260507144242 58 99 3.0 8.0 0.00 0.00 0.00 66 1012.4
20260507143242 57 189 5.0 7.0 0.00 0.00 0.00 63 1012.6
20260507142242 57 135 2.0 7.0 0.00 0.00 0.00 63 1012.8
20260507141242 58 116 5.0 8.0 0.00 0.00 0.00 62 1013.0
20260507140242 58 129 2.0 6.0 0.00 0.00 0.00 62 1013.0
20260507135242 58 68 3.0 7.0 0.00 0.00 0.00 60 1013.1
20260507134242 59 110 6.0 7.0 0.00 0.00 0.00 60 1013.1
20260507133243 59 188 2.0 8.0 0.00 0.00 0.00 61 1013.1
20260507132242 59 159 1.0 7.0 0.00 0.00 0.00 61 1013.3
20260507131242 61 81 2.0 4.0 0.00 0.00 0.00 57 1013.3
20260507130242 60 196 1.0 9.0 0.00 0.00 0.00 59 1013.5
20260507125725 60 151 2.0 10.0 0.00 0.00 0.00 59 1013.7
20260507124242 60 127 3.0 8.0 0.00 0.00 0.00 59 1013.9
20260507123717 60 158 2.0 10.0 0.00 0.00 0.00 59 1013.9
20260507122242 60 89 2.0 11.0 0.00 0.00 0.00 60 1014.0
20260507121241 60 155 3.0 7.0 0.00 0.00 0.00 63 1014.0
20260507120242 58 139 5.0 10.0 0.00 0.00 0.00 67 1014.3
20260507115242 56 162 1.0 6.0 0.00 0.00 0.00 79 1014.5
20260507114242 56 171 3.0 7.0 0.00 0.00 0.00 80 1014.4
20260507113242 56 141 3.0 4.0 0.00 0.00 0.00 79 1014.2
20260507112729 56 126 2.0 7.0 0.00 0.00 0.00 79 1014.4
20260507111242 55 193 1.0 7.0 0.00 0.00 0.00 79 1014.3
20260507110733 55 221 0.0 7.0 0.00 0.00 0.00 79 1014.5
20260507105243 55 224 3.0 6.0 0.00 0.00 0.00 78 1014.6
20260507104242 57 140 5.0 8.0 0.00 0.00 0.00 78 1014.4
20260507103723 57 157 3.0 7.0 0.00 0.00 0.00 76 1014.3
20260507102242 56 129 2.0 7.0 0.00 0.00 0.00 78 1014.2
20260507101714 57 130 4.0 6.0 0.00 0.00 0.00 75 1014.2
20260507100243 56 96 2.0 4.0 0.00 0.00 0.00 77 1014.2
20260507095242 56 135 2.0 4.0 0.00 0.00 0.00 79 1014.1
20260507094242 56 149 4.0 7.0 0.00 0.00 0.00 80 1014.3
20260507093731 56 105 2.0 3.0 0.00 0.00 0.00 82 1014.1
20260507093151 55 207 3.0 4.0 0.00 0.00 0.00 82 1014.0
20260507091242 56 121 2.0 6.0 0.00 0.00 0.00 83 1014.2
20260507090243 56 153 1.0 7.0 0.00 0.00 0.00 84 1014.3
20260507085242 55 116 1.0 3.0 0.00 0.00 0.00 84 1014.0
20260507084242 55 90 0.0 4.0 0.00 0.00 0.00 84 1014.2
20260507083242 55 175 2.0 6.0 0.00 0.00 0.00 85 1014.1
20260507082242 55 176 1.0 3.0 0.00 0.00 0.00 84 1013.9
20260507081242 55 121 0.0 4.0 0.00 0.00 0.00 83 1013.9
20260507080242 55 78 1.0 2.0 0.00 0.00 0.00 82 1014.0
20260507075242 54 1 0.0 2.0 0.00 0.00 0.00 81 1013.9
20260507074724 54 355 0.0 0.0 0.00 0.00 0.00 80 1014.0
20260507073242 53 334 0.0 2.0 0.00 0.00 0.00 80 1014.0
20260507072245 53 1 1.0 2.0 0.00 0.00 0.00 78 1013.8
20260507071243 53 331 1.0 3.0 0.00 0.00 0.00 80 1013.7
20260507070716 53 12 2.0 3.0 0.00 0.00 0.00 79 1013.7
20260507065731 53 353 1.0 2.0 0.00 0.00 0.00 79 1013.5
20260507064242 53 355 1.0 4.0 0.00 0.00 0.00 77 1013.3
20260507063243 53 344 2.0 3.0 0.00 0.00 0.00 76 1013.3
20260507062242 53 12 2.0 4.0 0.00 0.00 0.00 77 1013.0
20260507061243 53 334 3.0 4.0 0.00 0.00 0.00 78 1013.1
20260507060721 52 341 3.0 6.0 0.00 0.00 0.00 78 1013.2
20260507055247 52 331 4.0 6.0 0.00 0.00 0.00 77 1013.1
20260507054242 52 308 4.0 6.0 0.00 0.00 0.00 77 1013.3
20260507053715 52 318 3.0 6.0 0.00 0.00 0.00 76 1013.3
20260507052242 52 349 3.0 6.0 0.00 0.00 0.00 75 1013.4
20260507051242 52 341 4.0 6.0 0.00 0.00 0.00 75 1013.3
20260507050242 52 348 3.0 4.0 0.00 0.00 0.00 75 1013.2
20260507045242 53 338 3.0 3.0 0.00 0.00 0.00 75 1013.4
20260507044243 53 340 2.0 3.0 0.00 0.00 0.00 75 1013.6
20260507043242 53 346 1.0 4.0 0.00 0.00 0.00 75 1013.5
20260507042724 54 336 2.0 4.0 0.00 0.00 0.00 75 1013.5
20260507041242 53 358 3.0 4.0 0.00 0.00 0.00 74 1013.5
20260507040242 53 329 4.0 6.0 0.00 0.00 0.00 70 1013.8
20260507035242 53 347 3.0 6.0 0.00 0.00 0.00 71 1013.7
20260507034244 53 342 3.0 4.0 0.00 0.00 0.00 69 1013.7
20260507033243 53 345 2.0 6.0 0.00 0.00 0.00 70 1013.7
20260507032243 53 338 3.0 6.0 0.00 0.00 0.00 69 1013.8
20260507031729 53 333 3.0 6.0 0.00 0.00 0.00 68 1013.9
20260507030244 52 343 3.0 6.0 0.00 0.00 0.00 69 1013.9
20260507025244 52 352 3.0 6.0 0.00 0.00 0.00 69 1014.1
20260507024724 53 344 4.0 7.0 0.00 0.00 0.00 68 1013.9
20260507023242 52 351 4.0 7.0 0.00 0.00 0.00 68 1014.2
20260507022736 52 339 4.0 7.0 0.00 0.00 0.00 68 1014.5
20260507021242 52 20 5.0 6.0 0.00 0.00 0.00 69 1014.7
20260507020735 52 339 4.0 7.0 0.00 0.00 0.00 68 1014.5
20260507015242 52 337 5.0 6.0 0.00 0.00 0.00 69 1014.6
20260507014242 51 343 3.0 6.0 0.00 0.00 0.00 73 1014.8
20260507013241 52 345 3.0 6.0 0.00 0.00 0.00 72 1015.1
20260507012242 52 341 4.0 7.0 0.00 0.00 0.00 71 1015.2
20260507011242 53 336 4.0 7.0 0.00 0.00 0.00 70 1015.1
20260507010255 53 347 4.0 6.0 0.00 0.00 0.00 69 1015.5
20260507005242 53 353 3.0 6.0 0.00 0.00 0.00 67 1015.7
20260507004727 53 335 4.0 7.0 0.00 0.00 0.00 67 1015.6
20260507003732 53 341 4.0 8.0 0.00 0.00 0.00 65 1015.7
20260507002242 53 350 6.0 8.0 0.00 0.00 0.00 66 1015.7
20260507001742 53 337 6.0 8.0 0.00 0.00 0.00 64 1015.8
20260507000242 53 342 3.0 7.0 0.00 0.00 0.00 62 1015.9
20260506235244 53 332 4.0 8.0 0.00 0.00 0.00 63 1015.9
20260506234241 53 350 7.0 9.0 0.00 0.00 0.00 65 1015.8
20260506233242 53 334 6.0 8.0 0.00 0.00 0.00 65 1015.8
20260506232247 53 344 7.0 10.0 0.00 0.00 0.00 64 1015.8
20260506231245 54 11 6.0 10.0 0.00 0.00 0.00 64 1015.8
20260506230255 53 347 5.0 8.0 0.00 0.00 0.00 66 1016.0
20260506225244 54 351 5.0 7.0 0.00 0.00 0.00 66 1016.1
20260506224242 54 343 5.0 10.0 0.00 0.00 0.00 64 1016.0
20260506223242 54 333 5.0 9.0 0.00 0.00 0.00 64 1016.2
20260506222244 54 344 5.0 11.0 0.00 0.00 0.00 66 1016.1
20260506221241 54 358 5.0 11.0 0.00 0.00 0.00 65 1016.4
20260506220241 54 357 9.0 11.0 0.00 0.00 0.00 65 1016.5
20260506215244 54 333 7.0 11.0 0.00 0.00 0.00 66 1016.3
20260506214242 54 333 7.0 9.0 0.00 0.00 0.00 66 1016.4
20260506213243 54 350 6.0 9.0 0.00 0.00 0.00 68 1016.4
20260506212243 54 357 6.0 8.0 0.00 0.00 0.00 70 1016.1
20260506211242 54 343 4.0 7.0 0.00 0.00 0.00 72 1016.1
20260506210242 55 337 3.0 9.0 0.00 0.00 0.00 70 1016.2
20260506205243 55 343 4.0 11.0 0.00 0.00 0.00 70 1015.9
20260506204242 54 337 3.0 6.0 0.00 0.00 0.00 72 1016.0
20260506203242 54 344 3.0 6.0 0.00 0.00 0.00 71 1016.0
20260506202243 55 352 4.0 7.0 0.00 0.00 0.00 71 1015.6
20260506201243 55 344 1.0 3.0 0.00 0.00 0.00 72 1015.8
20260506200243 55 341 3.0 4.0 0.00 0.00 0.00 71 1015.5
20260506195243 56 333 1.0 6.0 0.00 0.00 0.00 68 1015.5
20260506194243 56 350 0.0 9.0 0.00 0.00 0.00 68 1015.4
20260506193243 57 338 1.0 3.0 0.00 0.00 0.00 71 1015.4